Lid_Strength_Index
2 2 3 3 3 3 4 3 3 4 4 5 5 4 4 4 3 4 6 5 7 9 8 9 9 10 11 11 13 12 13 13 13 14 14 14 15 14 15 14 15 16 17 17 16 18 19 10 11 13 10 9 7 6
1 1 2 2 3 3 3 4 4 5 4 4 4 4 5 4 4 4 6 5 6 8 9 7 8 8 9 9 11 11 11 11 11 12 12 12 14 14 15 18 12 17 14 15 15 15 11 9 10 8 7 7 7 6
1 0 0 1 2 2 3 3 4 4 4 5 5 5 5 5 5 5 6 6 7 9 9 9 10 8 7 8 7 11 10 9 10 9 11 11 14 13 16 15 14 12 11 13 13 12 11 10 9 8 6 6 5 5
1 1 1 -1 -1 0 1 2 2 3 3 4 5 5 5 6 5 5 7 6 7 9 13 10 8 9 7 7 7 7 8 7 8 9 11 12 14 12 14 13 14 12 11 13 13 11 10 10 9 8 7 6 5 5
1 1 1 -0 -1 -1 -0 0 1 1 2 3 4 4 5 5 6 6 6 5 6 10 13 12 9 8 8 7 7 7 8 8 10 11 12 13 12 12 12 12 13 11 13 14 14 11 11 10 8 7 7 6 6 7
2 1 1 0 -0 -0 -1 -0 -0 0 1 2 2 3 4 5 5 6 9 6 5 6 11 14 9 10 9 8 8 8 7 8 9 11 12 12 10 12 15 15 11 10 9 9 11 9 9 8 7 6 7 7 7 8
2 1 1 1 0 0 -0 -1 -1 -0 0 1 2 2 2 3 5 8 10 8 5 6 11 13 13 10 8 8 8 8 8 8 9 11 13 12 12 11 13 15 11 10 9 9 8 8 10 9 10 8 8 8 7 7
2 2 1 1 1 0 0 -0 -1 -1 0 0 1 2 3 3 4 7 5 5 4 7 9 14 14 12 9 11 11 8 9 10 11 12 11 12 11 12 14 11 10 9 9 9 9 9 10 9 9 8 8 8 9 9
2 2 1 1 1 0 0 0 -0 -1 -1 0 1 2 4 5 7 6 3 4 4 7 13 14 15 14 10 10 10 10 10 13 10 13 13 12 14 15 12 11 10 9 10 10 9 10 10 10 10 9 9 9 10 10
2 2 1 1 1 1 0 -0 -0 -0 -1 1 3 6 9 6 3 4 6 8 9 9 10 13 11 12 11 11 11 11 11 13 14 13 11 14 14 10 10 9 9 8 9 9 11 12 12 12 11 9 9 9 9 10
2 1 1 1 1 1 1 0 -0 -0 0 4 7 8 5 3 6 8 10 11 11 13 11 11 11 12 10 12 12 10 12 13 16 14 14 15 15 11 10 9 9 8 9 10 10 10 11 10 10 9 9 9 9 9
2 1 1 1 1 1 0 0 -0 1 2 4 5 5 6 8 10 12 13 11 12 14 11 12 11 10 10 9 11 11 13 13 17 12 15 17 13 10 9 9 9 9 9 9 10 10 10 9 8 9 9 9 9 9
1 1 1 1 1 0 0 0 0 0 2 4 7 9 10 11 14 14 16 14 13 11 10 11 12 11 11 10 11 12 15 16 12 15 16 14 10 9 9 9 9 10 9 10 10 10 10 9 8 8 9 9 9 9
-0 -0 -1 -0 -0 -0 -0 0 0 0 4 9 11 13 12 13 13 12 11 10 10 9 10 10 11 11 10 12 12 15 14 13 16 18 16 13 10 9 9 10 10 10 10 10 11 10 10 9 8 8 9 9 10 10
-1 -1 -0 -0 -1 -1 -1 -0 -0 1 5 10 10 12 12 9 8 8 8 7 8 8 10 11 11 11 12 13 12 13 15 18 16 16 12 10 9 9 10 10 10 10 10 11 10 10 9 8 8 9 9 9 9 9
-1 -0 0 -0 -0 -0 -0 -0 1 1 5 8 9 9 8 8 9 7 8 9 8 8 9 9 12 13 14 13 14 16 16 17 14 12 10 9 9 10 10 10 10 10 10 11 10 10 9 8 8 9 9 9 10 9
-0 2 -0 -0 -0 -0 -0 2 2 5 8 9 9 7 7 6 8 7 7 8 7 9 11 11 14 14 11 14 15 14 15 12 10 10 9 9 9 10 10 10 10 9 10 10 10 9 8 7 8 8 10 9 9 9
2 1 -0 -0 -0 1 2 2 5 9 10 8 8 7 6 5 6 6 6 7 8 9 9 11 9 12 14 16 15 12 10 9 9 9 9 9 9 9 9 10 9 9 10 10 9 9 8 8 8 9 9 9 9 10
0 0 -0 0 1 3 5 6 7 10 9 6 6 5 5 5 5 5 5 6 6 6 7 9 11 13 12 11 10 9 9 9 9 9 9 8 8 9 9 8 9 10 9 9 9 8 7 7 7 8 8 9 9 9
-1 -1 -0 -0 0 5 8 9 8 8 9 7 5 6 6 6 5 5 6 6 7 8 9 11 11 10 9 8 7 8 8 7 8 10 9 9 8 8 9 9 10 9 9 9 8 7 7 8 7 8 8 8 9 9
0 0 -0 0 3 6 7 9 9 8 6 7 6 6 8 6 7 7 7 6 9 10 11 9 8 7 7 6 6 7 7 7 8 8 9 9 8 8 9 9 9 9 9 9 8 8 7 8 8 8 8 9 9 10
2 -0 3 4 8 9 9 7 7 7 7 7 7 6 8 8 8 8 7 9 10 9 8 8 7 7 7 7 7 7 7 7 7 7 6 7 9 9 10 9 10 9 9 8 8 8 8 7 7 8 8 8 9 10
2 4 7 8 9 9 10 7 8 8 9 9 7 9 9 8 7 5 9 9 9 7 7 7 7 6 6 6 6 6 6 7 8 7 8 8 8 8 9 9 8 9 9 7 7 7 8 7 7 8 8 9 10 10
3 7 8 9 8 10 9 9 8 8 8 9 9 10 9 8 7 9 10 9 8 7 7 7 7 7 7 7 7 6 6 6 7 7 7 8 9 9 9 8 8 7 7 7 7 7 7 7 7 8 8 8 9 9
9 10 9 10 8 10 10 10 10 10 11 10 10 10 10 9 11 11 11 10 9 8 8 7 7 7 8 7 7 7 6 6 8 8 7 7 8 8 8 8 7 6 6 7 8 8 8 8 8 8 8 9 9 9
11 10 10 10 10 10 10 12 11 11 11 11 10 10 9 11 12 12 11 9 9 8 7 7 8 8 7 7 7 8 7 6 7 8 8 7 8 8 9 9 8 8 6 7 7 8 8 8 9 9 9 9 8 10
12 11 9 7 8 8 9 9 9 10 11 11 11 11 11 13 13 11 8 8 8 8 7 6 7 7 8 8 7 6 6 6 7 7 6 7 7 7 8 8 8 7 6 7 7 7 8 9 9 9 9 9 10 11
10 9 11 10 9 8 10 10 10 11 10 9 10 12 12 12 11 9 9 9 9 8 8 8 7 7 7 7 7 7 7 7 7 7 7 7 7 7 7 7 6 5 7 7 7 7 8 8 9 10 10 11 11 11
10 8 9 12 10 10 10 10 10 9 8 9 11 11 10 9 9 9 10 10 9 9 10 9 8 7 7 7 7 7 7 8 9 10 10 10 10 9 7 7 7 7 8 8 6 7 8 9 10 10 10 11 11 11
9 8 9 10 11 11 10 10 9 9 8 8 9 9 10 11 11 10 10 10 10 10 9 8 8 8 9 9 9 9 8 8 8 9 10 10 10 8 8 7 7 7 7 9 10 9 7 8 9 10 10 11 11 11
8 8 10 10 11 11 10 9 8 8 9 9 9 10 11 12 11 10 10 10 10 8 9 10 9 8 9 9 10 10 10 8 8 8 7 7 7 7 7 7 7 7 8 9 10 10 10 10 11 11 11 11 11 11
8 10 11 12 12 10 8 9 9 10 10 10 11 11 11 11 12 12 11 11 11 11 10 10 11 11 9 9 8 8 7 9 9 8 8 8 7 7 7 7 7 7 9 9 10 10 10 11 11 11 11 11 11 11
10 10 10 11 11 11 10 10 11 12 12 12 12 12 12 12 13 12 11 11 11 11 11 10 10 9 9 8 8 8 7 9 8 6 6 6 6 6 7 7 7 7 8 8 9 9 10 11 11 11 11 11 12 12